Volver al catálogo

ATLAS AGENA R/B

ActivoMEO
NORAD 27787·ROCKET BODY·🇺🇸 United States

Lanzado Sep 1, 1970 desde Cape Canaveral Space Force Station

Loading…

Próximos Pases (próximas 24 horas)

TLE

ActualizadoSource: Space-Track

Época: Sep 13, 2026, 13:53 UTC

1 27787U 70069B   26256.57885885 -.00000306  00000-0  00000-0 0  9998
2 27787  11.8092 132.5442 1184769 195.3868 160.7889  1.01708451 27916

Sigue ATLAS AGENA R/B en tiempo real con AllMySat

Download on the App Store